sat.trackr.live / text

‹ back to catalog

BEIDOU-2 G8 (C01)

NORAD 44231 · 2019-027A

PAYLOAD ACTIVE UNKNOWN

§ Identity

Operator
Country
PRC
Launch date
2019-05-17
Launch site
XICLF
Launch vehicle
Mass (kg)
RCS (m²)

Purposes: comms, nav

External: N2YO · Heavens-Above · Gunter

§ Orbital elements

Epoch: 2026-05-25T04:25:50.810304Z

Period
1,436.13 min
Inclination
1.6023°
Eccentricity
0.0010611
Mean motion
1.00269167 rev/d
Perigee alt
35,742.6 km
Apogee alt
35,832.1 km
Semi-major
42,165.5 km
B*
0.0000e+0
RAAN
74.4719°
Arg perigee
281.5667°
Mean anomaly
97.6925°
Rev number
2,585

§ Raw data

BEIDOU-2 G8 (C01)1 44231U 19027A   26145.18461586 -.00000249  00000+0  00000+0 0  99942 44231   1.6023  74.4719 0010611 281.5667  97.6925  1.00269167 25854

JSON: /api/v1/satellites/44231 · /tle

For live sub-satellite position, see the globe view (requires WebGL).

§ Visibility from observer

Set your observer location to see the next 7 days of passes ≥ 10°. The values pass through the URL so the page stays shareable.

No JS? Fill the form by hand. The geolocation button needs JavaScript.